Location: Rocktram
(38.2574°N, 122.2805°W)
Time: 01:26:37
(UTC+00:00)

Cosmos 304 Rocket - Pass Details

Date: 30 March 2020
Orbit: 680 x 687 km, 74.0° (Epoch: 27 May)

Event Time Altitude Azimuth Distance (km) Brightness Sun altitude
Rises 03:59:47 0° 336° (NNW) 3,044 7.8 -17.9°
Reaches altitude 10° 04:02:08 10° 332° (NNW) 2,125 7.0 -18.4°
Maximum altitude 04:06:46 52° 256° (WSW) 841 4.5 -19.2°
Enters shadow 04:11:14 11° 181° (S) 2,060 6.0 -20.0°
